Date,TemperatureHighF,TemperatureAvgF,TemperatureLowF,DewpointHighF,DewpointAvgF,DewpointLowF,HumidityHigh,HumidityAvg,HumidityLow,PressureMaxIn,PressureMinIn,WindSpeedMaxMPH,WindSpeedAvgMPH,GustSpeedMaxMPH,PrecipitationSumIn
2013-1-1,30.9,21.1,10.4,19.6,9.1,0.3,76,60,44,29.18,29.03,11,1,11,0.00
2013-1-2,26.2,20.7,12.0,17.0,13.1,5.6,80,72,60,29.21,29.09,10,1,10,0.00
2013-1-3,28.0,21.8,12.9,24.6,15.0,3.9,88,75,64,29.18,29.06,12,3,13,0.00
2013-1-4,33.8,26.7,21.2,23.1,17.6,13.8,85,69,51,29.21,29.03,18,5,18,0.00
2013-1-5,37.2,25.4,12.6,30.2,20.4,11.1,98,82,55,29.29,29.03,14,2,14,0.00
2013-1-6,35.1,32.6,30.4,32.2,29.1,23.6,96,87,75,29.29,28.94,11,2,11,0.00
2013-1-7,39.2,30.7,25.7,24.0,21.7,18.8,79,70,51,29.38,29.18,16,4,16,0.00
2013-1-8,38.5,28.5,19.4,25.5,22.1,17.4,97,78,56,29.26,29.18,10,2,10,0.00
2013-1-9,47.5,37.1,26.6,33.5,25.8,19.1,94,66,39,29.44,29.06,22,5,22,0.00
2013-1-10,46.8,31.9,20.8,32.7,24.9,19.3,96,77,46,29.59,29.21,11,2,11,0.00
2013-1-11,53.2,42.4,34.3,52.5,41.4,32.7,98,96,83,29.21,28.79,14,4,14,0.00
2013-1-12,58.1,47.8,41.7,50.0,45.3,41.0,98,92,69,28.97,28.88,10,1,10,0.00
2013-1-13,46.8,36.8,28.9,46.0,36.1,26.5,98,97,87,29.06,28.76,14,2,14,0.00
2013-1-14,28.8,22.9,15.8,26.5,16.0,12.1,91,75,60,29.44,29.06,8,1,8,0.00
2013-1-15,32.9,21.3,10.9,21.6,14.9,8.6,97,78,54,29.44,29.18,6,0,6,0.00
2013-1-16,38.7,28.2,18.3,26.0,18.2,13.3,95,69,39,29.18,28.82,17,3,17,0.00
2013-1-17,39.2,29.4,17.4,27.5,17.3,2.5,82,61,45,29.32,28.97,15,3,15,0.00
2013-1-18,34.0,24.5,12.9,19.6,11.8,3.2,75,59,44,29.44,29.00,26,4,26,0.00
2013-1-19,48.0,39.9,32.2,33.0,26.7,19.5,68,59,48,29.00,28.61,20,5,20,0.00
2013-1-20,42.8,41.6,39.6,32.3,25.2,18.0,67,52,43,28.61,28.59,34,9,34,0.00
2013-1-21,19.9,3.9,2.3,2.5,-11.9,-13.3,47,47,46,29.12,29.09,10,2,20,0.00
2013-1-22,14.0,4.3,-3.5,-3.2,-11.7,-18.6,47,47,46,29.26,29.12,15,3,15,0.00
2013-1-23,18.9,10.3,1.2,6.4,-3.5,-14.7,64,53,46,29.26,29.09,13,2,13,0.00
2013-1-24,22.5,12.3,6.3,6.0,-1.7,-9.0,64,53,40,29.59,29.12,11,2,11,0.00
2013-1-25,23.7,16.8,10.9,14.7,5.8,-6.7,86,63,44,29.50,29.03,11,2,11,0.00
2013-1-26,29.3,20.9,14.5,16.5,12.5,7.8,89,71,48,29.44,29.06,9,1,9,0.00
2013-1-27,30.7,20.6,8.6,27.9,13.1,4.2,97,74,49,29.47,29.12,15,3,15,0.00
2013-1-28,44.2,35.9,29.1,43.7,35.4,28.1,98,98,95,29.15,28.88,10,1,10,0.00
2013-1-29,56.3,44.9,33.8,55.8,44.4,33.3,98,98,98,29.03,28.50,17,4,17,0.00
2013-1-30,59.2,48.2,31.5,58.6,47.2,27.1,98,96,85,28.50,28.17,27,4,27,0.00
2013-1-31,31.1,21.5,13.6,26.8,12.1,5.1,85,67,51,28.88,28.29,0,0,0,0.00
2013-2-1,20.7,13.1,7.0,9.1,3.6,-4.3,81,66,49,29.26,28.88,0,0,0,0.00
2013-2-2,23.9,15.3,5.2,17.3,6.8,-2.2,83,69,59,29.21,28.94,0,0,0,0.00
2013-2-3,23.5,12.1,-1.5,15.2,2.9,-8.6,79,67,55,29.03,28.85,0,0,0,0.00
2013-2-4,27.0,19.4,14.7,17.3,12.9,3.9,87,76,61,29.03,28.88,0,0,0,0.00
2013-2-5,29.5,20.3,5.0,25.9,14.7,1.5,97,80,51,28.97,28.82,0,0,0,0.00
2013-2-6,37.8,24.0,8.6,22.2,13.6,5.3,93,66,43,29.29,28.97,8,1,8,0.00
2013-2-7,40.6,30.0,23.2,26.3,20.4,13.2,89,67,52,29.29,28.88,13,3,13,0.00
2013-2-8,29.1,25.0,12.7,28.1,19.6,8.9,98,81,60,29.35,28.82,17,3,17,0.00
2013-2-9,38.8,19.5,1.6,20.8,10.7,-1.9,96,71,41,29.44,29.29,10,2,10,0.12
2013-2-10,39.9,29.8,19.0,36.3,24.0,17.0,98,81,52,29.29,28.73,15,4,15,0.04
2013-2-11,43.0,36.0,30.6,42.3,29.4,21.9,98,77,59,28.88,28.59,32,7,32,0.00
2013-2-12,33.1,29.8,26.6,24.4,20.8,17.8,78,69,59,29.06,28.88,15,4,17,0.00
2013-2-13,42.4,30.9,25.2,24.1,21.0,18.0,85,67,46,28.94,28.73,8,1,8,0.00
2013-2-14,37.6,32.6,25.5,33.5,28.6,23.2,98,85,72,28.88,28.70,24,4,24,0.00
2013-2-15,33.1,27.4,21.0,27.0,13.9,8.6,79,57,43,29.15,28.88,13,3,13,0.00
2013-2-16,27.9,20.3,14.0,19.1,11.0,5.0,82,67,47,29.12,29.00,11,1,11,0.00
2013-2-17,25.9,17.9,7.5,11.8,2.9,-2.0,85,53,42,29.21,29.06,15,2,15,0.00
2013-2-18,45.9,30.9,11.8,35.0,17.3,-1.2,72,57,42,29.21,28.64,18,5,18,0.00
2013-2-19,45.1,28.0,16.7,40.8,21.2,6.3,98,76,56,28.94,28.44,25,7,25,0.00
2013-2-20,22.6,19.0,14.4,13.1,7.6,3.5,74,61,50,29.23,28.94,16,5,17,0.00
2013-2-21,29.8,21.7,19.4,15.1,11.8,8.6,77,66,51,29.38,29.23,12,3,12,0.00
2013-2-22,32.7,26.8,21.0,32.2,23.4,14.9,98,87,77,29.29,28.88,15,4,15,0.00
2013-2-23,35.4,29.6,21.9,30.1,19.8,14.7,94,67,51,28.94,28.88,13,3,13,0.00
2013-2-24,37.8,27.5,18.1,24.5,19.4,12.9,92,73,52,29.18,28.91,14,1,14,0.00
2013-2-25,45.9,30.2,14.0,30.8,19.7,12.0,95,68,42,29.23,29.12,8,1,8,0.00
2013-2-26,35.1,31.0,26.2,32.2,24.8,17.3,98,79,57,29.15,28.53,15,2,15,0.08
2013-2-27,35.8,33.4,32.4,35.3,32.8,31.9,98,98,95,28.61,28.47,8,1,8,0.00
2013-2-28,37.4,32.7,28.4,34.0,29.2,21.8,98,87,71,29.00,28.59,17,3,17,0.00
2013-3-1,28.4,25.5,23.5,22.7,18.4,15.4,82,74,65,29.12,29.00,13,5,16,0.00
2013-3-2,26.6,23.8,21.4,18.4,16.2,14.0,80,73,65,29.12,29.06,8,2,11,0.00
2013-3-3,35.1,23.1,14.4,14.9,12.2,8.7,82,64,42,29.09,29.00,11,2,11,0.00
2013-3-4,41.0,25.0,10.2,18.7,12.2,5.3,88,60,39,29.18,29.06,8,1,8,0.00
2013-3-5,41.2,28.7,17.8,21.8,17.9,10.6,90,66,44,29.15,28.85,17,4,17,0.00
2013-3-6,43.2,32.5,25.3,29.1,24.4,20.1,85,73,53,29.23,28.88,13,3,14,0.00
2013-3-7,36.0,31.7,24.1,29.6,23.1,15.1,88,71,52,29.41,29.23,10,1,10,0.04
2013-3-8,48.9,32.1,19.0,27.4,20.5,15.5,90,65,39,29.50,29.41,9,1,9,0.00
2013-3-9,45.9,35.0,24.3,29.8,25.4,20.1,93,69,48,29.41,29.06,13,3,13,0.00
2013-3-10,62.1,49.7,35.8,42.0,34.5,28.7,77,57,43,29.06,28.82,17,4,17,0.00
2013-3-11,55.4,48.1,35.6,49.3,42.9,31.2,98,83,51,28.85,28.53,20,6,20,0.00
2013-3-12,36.0,32.9,27.0,32.2,28.1,23.2,94,82,71,28.94,28.73,18,4,18,0.00
2013-3-13,33.6,28.3,23.5,27.9,18.1,9.4,96,67,45,29.21,28.88,17,4,17,0.00
2013-3-14,43.9,30.6,20.1,20.2,14.9,8.6,75,53,38,29.26,29.09,14,2,14,0.00
2013-3-15,39.2,33.9,27.5,33.5,27.2,14.2,98,77,49,29.09,28.88,12,2,12,0.04
2013-3-16,34.3,28.8,25.5,32.2,24.8,18.3,98,85,68,29.06,28.79,8,0,8,0.00
2013-3-17,36.3,26.6,17.6,22.0,13.3,7.3,82,58,41,29.26,29.06,11,2,11,0.00
2013-3-18,34.0,28.9,20.3,33.5,24.9,10.1,98,85,63,29.21,28.59,16,4,16,0.00
2013-3-19,33.4,26.0,21.4,30.6,16.3,10.7,90,67,52,28.94,28.64,24,6,24,0.00
2013-3-20,31.6,23.9,15.8,16.7,10.4,4.7,69,56,44,28.97,28.91,15,4,15,0.00
2013-3-21,33.3,23.5,14.2,21.9,15.9,7.1,85,73,54,28.94,28.88,13,3,13,0.00
2013-3-22,42.1,30.4,24.6,21.2,16.5,13.1,70,56,41,29.03,28.94,13,2,13,0.00
2013-3-23,39.9,28.7,19.8,24.8,19.2,16.7,94,69,48,29.12,29.03,9,1,9,0.00
2013-3-24,36.9,28.8,21.0,25.9,20.7,15.7,95,73,46,29.09,28.67,20,4,20,0.00
2013-3-25,41.0,33.9,30.2,26.6,22.6,19.8,73,63,49,28.94,28.59,21,6,21,0.00
2013-3-26,45.5,36.1,31.6,30.2,26.2,22.8,87,68,49,29.15,28.94,11,2,11,0.00
2013-3-27,50.2,37.6,27.5,30.2,24.3,21.0,89,62,38,29.23,29.15,16,3,16,0.00
2013-3-28,57.0,40.6,27.5,29.0,22.8,18.6,80,51,33,29.29,29.23,13,2,13,0.00
2013-3-29,57.6,40.7,26.2,26.5,20.4,13.9,70,46,28,29.29,29.21,11,1,11,0.00
2013-3-30,60.6,42.6,23.2,28.2,22.6,16.3,86,49,26,29.23,28.97,13,2,13,0.00
2013-3-31,61.9,46.6,36.1,43.7,31.7,24.0,84,58,34,28.97,28.67,17,2,17,0.00
2013-4-1,44.6,32.6,24.8,29.6,15.2,9.0,75,49,35,29.12,28.73,17,4,17,0.00
2013-4-2,46.0,31.4,21.2,18.2,12.9,7.8,77,48,32,29.26,29.12,16,3,16,0.00
2013-4-3,46.9,32.5,21.9,17.7,11.7,6.4,62,43,30,29.44,29.26,17,2,17,0.00
2013-4-4,60.1,41.3,24.3,24.6,17.1,9.6,54,39,25,29.38,28.97,13,3,13,0.00
2013-4-5,52.2,41.7,31.3,29.2,20.1,12.4,75,44,29,29.23,28.97,15,3,15,0.00
2013-4-6,52.5,39.4,27.5,25.6,20.5,13.1,71,48,34,29.26,28.82,17,5,17,0.00
2013-4-7,56.3,49.9,36.5,44.3,33.8,24.2,78,55,38,29.06,28.64,20,5,20,0.00
2013-4-8,63.3,44.8,33.4,55.5,38.9,27.9,96,80,51,29.09,28.73,23,4,23,0.00
2013-4-9,55.0,46.5,41.0,46.0,42.8,40.0,98,87,67,29.12,28.91,11,2,11,0.04
2013-4-10,45.9,41.3,37.6,45.1,40.8,37.1,98,98,95,29.03,28.88,14,4,14,0.00
2013-4-11,37.9,36.7,35.8,37.4,36.2,35.3,98,98,98,29.03,28.67,17,4,17,0.00
2013-4-12,41.5,37.8,34.5,40.8,35.2,30.6,98,91,72,28.79,28.56,17,3,17,0.00
2013-4-13,43.9,37.6,34.9,38.2,28.7,23.2,96,71,48,29.03,28.79,26,4,26,0.00
2013-4-14,50.2,38.7,31.1,38.8,30.4,25.0,85,72,53,29.15,28.97,13,2,13,0.00
2013-4-15,69.1,54.1,37.8,55.3,43.7,31.8,92,70,48,29.00,28.91,21,4,21,0.00
2013-4-16,64.4,53.7,44.1,53.7,41.3,29.6,98,67,36,29.26,28.91,14,2,14,0.00
2013-4-17,64.2,48.3,38.5,43.9,34.2,27.1,98,61,35,29.35,29.06,14,4,14,0.00
2013-4-18,77.4,57.4,42.8,63.6,54.7,42.3,98,92,61,29.06,28.61,25,5,25,0.00
2013-4-19,57.9,44.3,35.4,57.4,37.7,25.3,98,79,55,28.79,28.38,27,6,27,0.00
2013-4-20,42.8,34.4,28.6,29.6,19.2,12.8,88,55,41,29.44,28.79,15,4,15,0.16
2013-4-21,53.8,37.8,22.8,29.1,22.8,16.8,98,59,36,29.62,29.44,13,3,13,0.00
2013-4-22,67.3,48.4,31.8,35.3,28.1,18.0,89,50,25,29.50,29.23,12,3,12,0.00
2013-4-23,70.9,55.2,40.8,53.7,39.4,28.2,98,59,34,29.23,28.85,22,3,22,0.00
2013-4-24,54.0,39.1,33.8,53.4,36.3,25.2,98,90,63,29.15,28.79,13,3,13,0.00
2013-4-25,54.0,40.7,32.0,41.3,29.8,23.5,88,67,38,29.38,29.12,18,3,18,0.00
2013-4-26,61.7,46.3,28.6,35.1,30.6,24.5,98,59,35,29.47,29.35,14,3,14,0.00
2013-4-27,73.4,54.9,35.6,44.4,35.2,31.0,98,54,24,29.38,29.15,11,2,11,0.04
2013-4-28,56.5,52.3,48.2,53.0,44.1,30.1,98,76,47,29.15,28.88,12,1,12,0.00
2013-4-29,71.4,59.9,52.2,56.6,52.3,49.0,98,79,47,29.00,28.88,9,1,9,0.00
2013-4-30,74.5,61.2,52.5,57.4,53.0,50.8,98,76,47,29.12,28.97,16,4,16,0.00
2013-5-1,84.9,68.3,51.8,56.8,52.3,47.6,98,62,32,29.29,29.12,13,3,13,0.00
2013-5-2,83.5,67.6,54.1,54.5,47.7,39.7,78,52,31,29.29,29.18,16,3,16,0.00
2013-5-3,82.4,67.3,56.1,54.5,41.5,31.7,55,40,22,29.18,29.12,14,3,14,0.00
2013-5-4,75.9,63.3,53.4,47.0,40.3,33.5,71,45,28,29.18,29.12,11,2,11,0.00
2013-5-5,78.3,62.5,50.7,43.4,37.2,31.4,67,42,23,29.15,29.06,12,2,12,0.00
2013-5-6,79.2,62.2,47.8,47.5,40.6,35.1,70,47,32,29.12,29.03,11,2,11,0.00
2013-5-7,81.3,64.2,48.6,53.1,45.3,38.7,80,53,31,29.12,29.06,13,1,13,0.00
2013-5-8,85.6,65.1,50.9,51.7,47.8,42.5,96,59,28,29.09,29.00,13,1,13,0.00
2013-5-9,86.7,67.3,48.7,57.3,48.9,42.2,98,58,27,29.03,28.94,8,0,8,0.00
2013-5-10,69.4,56.8,42.1,62.7,51.3,38.4,98,83,55,28.97,28.82,13,2,13,0.00
2013-5-11,66.4,48.1,37.2,47.3,40.0,29.8,98,76,38,28.94,28.76,17,2,17,0.00
2013-5-12,54.0,41.2,32.4,33.2,26.8,20.0,84,58,39,29.12,28.91,17,3,17,0.00
2013-5-13,61.0,43.1,27.3,30.3,24.5,20.2,89,52,28,29.21,29.12,13,1,13,0.00
2013-5-14,81.1,58.7,39.4,49.7,37.0,23.6,67,46,31,29.15,28.79,15,2,15,0.00
2013-5-15,87.3,70.5,54.5,60.1,47.5,38.6,96,49,25,28.85,28.64,13,2,15,0.00
2013-5-16,88.0,68.0,47.3,49.2,42.9,34.7,95,45,21,29.09,28.85,11,1,11,0.00
2013-5-17,81.0,63.0,48.2,46.4,40.4,34.4,70,46,28,29.21,29.09,11,1,11,0.00
2013-5-18,87.3,66.0,55.0,50.1,43.4,37.5,64,46,27,29.21,29.09,8,1,8,0.00
2013-5-19,92.1,71.2,51.4,61.0,53.7,41.5,86,57,32,29.09,28.94,8,1,8,0.00
2013-5-20,94.3,76.0,60.4,70.0,61.9,56.6,98,67,33,29.00,28.85,17,2,17,0.00
2013-5-21,88.3,76.4,67.6,67.1,60.7,55.0,87,61,35,28.88,28.79,13,2,13,0.00
2013-5-22,82.9,69.0,61.9,64.9,61.3,54.4,97,78,43,28.82,28.67,21,2,21,0.00
2013-5-23,63.7,52.7,41.2,61.0,51.3,40.7,98,95,79,29.21,28.76,17,2,17,0.00
2013-5-24,58.8,46.5,38.1,42.3,34.8,28.8,98,67,40,29.38,29.21,13,2,13,0.00
2013-5-25,71.1,48.0,33.3,40.5,35.3,32.5,98,69,30,29.41,29.32,10,1,10,0.00
2013-5-26,75.6,55.1,33.8,46.5,35.3,31.9,98,55,24,29.38,29.26,9,0,9,0.00
2013-5-27,63.3,51.1,41.2,50.1,41.5,32.9,98,72,38,29.29,29.06,8,0,8,0.00
2013-5-28,73.2,61.4,50.5,72.3,59.8,50.0,98,95,80,29.06,28.85,13,1,13,0.00
2013-5-29,85.6,73.1,63.3,67.8,63.5,57.7,97,74,42,29.06,28.82,15,2,15,0.00
2013-5-30,88.9,73.2,61.5,76.9,65.8,60.7,98,80,46,29.12,29.03,15,1,15,0.00
2013-5-31,82.2,71.6,66.4,69.9,66.3,64.3,98,84,59,29.06,28.91,14,3,14,0.00
2013-6-1,81.9,70.1,63.1,68.5,63.6,60.0,98,81,53,28.91,28.76,15,3,15,0.20
2013-6-2,73.0,64.0,51.3,63.9,55.4,40.3,98,75,52,29.03,28.73,14,2,14,0.00
2013-6-3,71.4,55.9,39.2,45.8,39.2,33.4,98,58,32,29.12,29.03,13,1,13,0.00
2013-6-4,77.7,60.2,43.9,47.9,42.5,31.0,98,58,31,29.23,29.12,10,1,10,0.00
2013-6-5,78.6,62.3,47.3,45.7,39.5,30.6,68,45,28,29.23,29.06,9,1,9,0.00
2013-6-6,73.4,60.8,54.9,53.5,46.0,38.1,75,58,47,29.06,28.91,11,2,11,0.00
2013-6-7,61.9,55.7,50.2,53.8,50.4,46.9,97,83,69,28.97,28.94,11,1,11,0.00
2013-6-8,77.7,63.8,54.7,53.8,50.8,46.0,90,65,37,29.12,28.97,8,0,8,0.00
2013-6-9,79.3,67.0,55.9,59.1,53.9,49.9,92,65,42,29.18,29.00,10,1,10,0.00
2013-6-10,75.9,65.5,59.9,68.9,62.8,49.9,98,92,58,29.00,28.79,8,0,8,0.00
2013-6-11,84.4,71.3,63.3,66.0,63.5,60.1,98,79,47,28.97,28.82,9,1,9,0.00
2013-6-12,76.3,68.3,60.6,69.9,64.8,60.0,98,89,72,29.00,28.73,10,0,10,0.04
2013-6-13,80.2,68.3,60.1,64.9,58.2,49.8,98,74,41,29.00,28.64,13,2,13,0.00
2013-6-14,79.9,66.0,56.5,59.8,52.8,45.1,96,66,33,29.15,29.00,12,1,12,0.00
2013-6-15,85.3,66.8,54.3,64.9,57.3,51.9,98,75,40,29.15,29.00,10,1,10,0.00
2013-6-16,83.3,70.1,61.5,65.8,60.1,48.3,98,74,38,29.00,28.85,13,2,13,0.00
2013-6-17,90.9,72.4,57.0,62.6,56.0,50.4,96,62,29,29.00,28.91,15,1,15,0.00
2013-6-18,75.9,63.6,53.2,59.5,49.6,37.6,98,65,34,29.15,28.94,13,3,13,0.00
2013-6-19,81.7,63.1,45.9,51.3,46.0,38.6,92,58,30,29.23,29.12,8,0,8,0.00
2013-6-20,87.6,68.8,50.5,55.3,51.1,45.7,97,59,29,29.26,29.21,9,1,9,0.00
2013-6-21,91.2,72.9,56.1,65.4,57.1,52.4,94,62,35,29.26,29.12,10,1,10,0.00
2013-6-22,89.4,76.2,66.0,73.5,64.9,56.0,85,69,51,29.15,29.06,12,1,12,0.00
2013-6-23,93.0,79.3,67.1,69.8,65.9,61.5,97,67,37,29.12,29.03,12,2,12,0.00
2013-6-24,90.7,77.5,66.6,71.0,66.8,63.0,97,72,44,29.12,29.00,11,1,11,0.00
2013-6-25,86.2,72.8,65.5,73.5,68.3,63.8,98,87,58,29.06,28.91,10,1,12,0.00
2013-6-26,86.4,73.3,63.9,72.1,67.3,63.3,98,83,60,28.97,28.82,13,1,13,0.04
2013-6-27,89.1,71.9,65.3,73.8,68.0,64.7,98,89,54,28.85,28.70,10,0,10,0.00
2013-6-28,78.1,67.5,63.0,68.4,64.3,58.8,98,90,60,28.70,28.59,13,0,13,0.08
2013-6-29,74.5,66.7,62.2,64.4,60.8,55.0,98,82,64,28.82,28.61,13,1,13,0.00
2013-6-30,83.1,69.0,59.9,61.5,56.5,48.3,94,67,38,29.03,28.79,15,2,15,0.00
2013-7-1,66.9,61.7,57.2,60.1,53.3,40.2,97,75,45,29.12,29.00,11,2,11,0.00
2013-7-2,77.7,65.4,57.4,63.9,59.0,55.0,98,81,58,29.15,29.06,8,1,8,0.00
2013-7-3,87.3,71.2,59.4,68.5,62.8,58.5,98,78,43,29.18,29.09,9,1,9,0.00
2013-7-4,85.1,73.6,66.2,67.7,63.0,57.1,97,72,44,29.21,29.15,11,1,11,0.94
2013-7-5,91.0,75.5,65.8,69.5,63.3,54.2,97,70,32,29.18,29.12,6,0,6,0.00
2013-7-6,88.5,74.4,66.2,72.5,67.5,62.9,98,81,49,29.18,29.06,12,1,12,0.00
2013-7-7,85.3,73.6,68.5,73.3,68.5,63.5,98,85,53,29.09,29.03,9,0,9,0.04
2013-7-8,84.2,73.6,67.8,76.2,69.0,64.7,98,86,70,29.12,29.03,15,1,15,0.00
2013-7-9,92.3,76.5,69.6,73.0,69.8,65.5,98,82,46,29.06,28.94,12,1,12,0.28
2013-7-10,90.9,77.7,64.0,76.9,68.3,54.5,98,75,46,29.03,28.85,12,1,12,0.16
2013-7-11,82.2,68.0,56.8,57.9,54.2,49.1,97,65,34,29.12,29.03,11,1,11,0.04
2013-7-12,87.1,69.0,54.5,62.1,56.9,51.2,98,70,36,29.21,29.12,9,1,9,0.00
2013-7-13,89.6,73.6,58.8,65.0,58.9,51.0,97,65,31,29.29,29.21,10,0,10,0.00
2013-7-14,95.2,78.3,63.0,71.7,66.0,60.7,98,70,39,29.32,29.26,6,0,6,0.00
2013-7-15,98.8,80.5,68.5,75.7,71.1,66.0,98,76,42,29.35,29.29,8,0,10,0.00
2013-7-16,95.2,81.9,73.8,80.3,73.9,69.2,97,78,48,29.38,29.29,8,0,8,0.00
2013-7-17,97.9,82.5,72.0,77.8,73.1,69.8,97,75,47,29.35,29.21,8,1,8,0.00
2013-7-18,98.4,83.2,71.6,76.7,71.4,64.2,96,71,40,29.23,29.03,12,1,12,0.00
2013-7-19,97.9,85.1,75.7,74.7,70.6,64.3,89,65,36,29.06,28.79,15,2,15,0.00
2013-7-20,90.3,76.6,66.7,70.3,63.4,53.6,98,68,34,29.00,28.82,15,1,15,0.00
2013-7-21,88.7,72.6,61.5,64.8,59.5,53.2,94,66,36,29.09,29.00,8,1,8,0.00
2013-7-22,86.9,74.3,66.9,69.7,63.9,57.7,90,72,44,29.03,28.85,7,0,7,0.00
2013-7-23,87.6,70.7,59.4,73.2,63.8,48.6,97,80,53,28.94,28.76,12,2,13,0.04
2013-7-24,75.4,63.3,53.2,52.5,48.8,45.7,86,61,38,29.12,28.94,9,1,11,0.00
2013-7-25,83.5,65.0,48.0,56.9,50.6,45.9,98,66,30,29.18,29.12,7,0,7,0.00
2013-7-26,84.7,68.5,55.0,59.9,54.9,51.8,94,65,37,29.18,28.97,10,1,10,0.00
2013-7-27,73.2,65.1,53.4,69.1,61.4,51.7,96,88,71,29.00,28.82,10,1,10,0.04
2013-7-28,68.0,57.7,50.4,54.7,52.0,49.3,98,82,59,29.03,28.91,15,2,15,0.00
2013-7-29,71.1,61.3,55.6,56.1,53.4,50.7,92,76,52,29.23,29.03,10,1,10,0.00
2013-7-30,85.1,66.2,49.6,62.4,54.9,49.1,98,72,34,29.29,29.18,7,0,7,0.00
2013-7-31,78.6,67.8,63.1,67.6,64.2,59.9,98,89,63,29.18,28.97,6,0,6,0.00
2013-8-1,83.3,67.0,58.6,64.7,60.9,51.1,98,83,40,29.00,28.94,10,1,10,0.00
2013-8-2,76.8,63.7,53.8,63.5,58.2,53.1,98,83,53,29.00,28.91,13,1,13,0.08
2013-8-3,81.9,68.6,57.2,63.5,56.4,48.1,98,70,34,29.12,28.97,12,1,12,1.73
2013-8-4,76.3,63.8,54.1,55.5,52.1,47.5,92,69,39,29.21,29.12,12,1,12,0.00
2013-8-5,73.9,63.5,52.0,58.3,53.1,48.3,96,71,43,29.18,29.03,9,0,9,0.00
2013-8-6,81.9,68.7,62.2,68.3,62.3,56.0,95,81,58,29.03,28.94,13,1,13,0.04
2013-8-7,82.9,70.7,63.9,71.7,66.8,63.0,98,88,66,29.00,28.91,10,0,10,0.00
2013-8-8,80.8,69.8,64.2,69.7,61.9,56.7,94,77,50,29.09,28.97,10,1,10,0.00
2013-8-9,84.9,70.0,57.6,59.7,56.7,51.3,97,67,33,29.09,29.03,12,1,12,0.00
2013-8-10,81.7,68.2,59.7,61.8,57.5,51.2,96,71,40,29.21,29.09,7,0,7,0.00
2013-8-11,83.8,68.3,55.9,61.6,56.8,52.6,98,70,39,29.18,29.09,9,0,9,0.00
2013-8-12,71.2,65.8,63.0,69.6,62.9,55.9,98,91,68,29.12,28.91,8,0,8,0.00
2013-8-13,67.6,59.6,52.2,63.7,55.1,42.1,98,86,48,29.12,28.91,11,1,11,0.00
2013-8-14,73.6,58.1,47.3,52.8,46.9,42.3,94,69,38,29.23,29.12,10,1,10,0.00
2013-8-15,78.3,61.9,47.1,54.3,50.1,46.0,98,70,35,29.23,29.15,8,0,8,0.00
2013-8-16,83.1,65.7,52.9,57.5,53.0,46.8,97,68,33,29.26,29.18,9,0,9,0.00
2013-8-17,84.7,66.7,51.8,61.2,53.9,44.9,98,69,31,29.32,29.23,6,0,8,0.00
2013-8-18,87.3,69.2,54.5,66.3,56.4,50.1,98,70,31,29.29,29.18,7,0,7,0.00
2013-8-19,86.9,69.7,55.0,63.1,55.8,48.8,98,67,29,29.18,29.12,10,0,10,0.00
2013-8-20,90.3,73.1,57.6,66.4,61.0,56.0,98,71,36,29.21,29.15,8,1,8,0.00
2013-8-21,90.7,74.7,62.8,68.8,64.3,61.0,97,73,43,29.21,29.06,10,1,10,0.00
2013-8-22,84.7,74.3,67.5,67.3,65.5,62.5,94,75,50,29.12,29.03,10,0,10,0.00
2013-8-23,86.0,70.4,56.7,67.4,54.3,43.5,98,63,27,29.26,29.12,10,1,10,0.00
2013-8-24,86.7,68.6,54.5,65.2,55.9,51.5,98,68,35,29.38,29.26,6,0,6,0.00
2013-8-25,91.6,72.6,55.4,63.6,59.0,54.0,98,67,33,29.35,29.21,12,1,12,0.00
2013-8-26,90.9,77.2,64.9,70.8,64.7,59.3,87,67,47,29.23,29.06,15,2,15,0.00
2013-8-27,86.4,75.6,70.2,77.9,72.3,68.6,98,90,72,29.06,28.91,13,0,13,0.00
2013-8-28,82.6,74.9,68.2,75.0,71.7,67.3,98,90,68,29.09,28.85,13,1,13,0.00
2013-8-29,90.9,74.6,64.0,73.1,67.7,63.5,98,81,48,29.15,29.09,5,0,5,0.00
2013-8-30,89.6,76.2,63.3,73.1,67.2,62.8,98,77,44,29.09,28.82,13,1,13,0.00
2013-8-31,82.0,73.5,66.4,71.1,66.9,62.9,96,81,58,28.91,28.82,9,1,9,0.00
2013-9-1,82.9,72.0,66.0,70.9,67.1,63.5,98,85,65,28.94,28.79,10,0,10,0.00
2013-9-2,80.4,69.2,58.5,69.8,59.7,49.0,97,74,47,29.00,28.79,10,1,10,0.00
2013-9-3,77.9,64.2,56.8,53.8,51.1,47.9,83,64,41,29.09,28.97,10,1,10,0.00
2013-9-4,84.4,67.8,53.6,61.8,56.2,52.4,98,71,39,29.15,29.09,11,1,11,0.00
2013-9-5,74.1,62.1,52.0,60.5,48.7,42.0,91,65,34,29.32,29.15,10,1,10,0.00
2013-9-6,79.7,61.2,44.1,56.1,47.1,43.1,98,66,31,29.32,29.12,6,0,6,0.00
2013-9-7,86.2,67.8,55.0,70.5,58.8,47.3,88,74,47,29.15,28.97,9,0,9,0.00
2013-9-8,77.0,67.9,55.9,66.3,57.1,46.8,93,70,41,29.15,29.00,12,2,12,0.00
2013-9-9,79.7,64.2,53.1,71.3,60.2,47.2,98,87,71,29.15,28.97,5,0,5,0.00
2013-9-10,96.1,79.9,67.5,74.3,67.9,59.0,98,72,32,29.09,28.94,14,1,14,0.00
2013-9-11,95.2,77.6,68.4,71.0,67.4,64.1,96,74,41,29.09,28.97,10,1,10,0.00
2013-9-12,80.6,67.8,54.3,67.2,59.1,46.4,98,78,37,29.03,28.91,13,1,13,0.00
2013-9-13,62.4,53.2,42.1,46.9,41.9,35.4,94,66,46,29.21,29.03,13,2,13,0.04
2013-9-14,72.7,53.4,36.9,48.2,40.3,36.3,98,68,32,29.23,29.15,7,0,7,0.00
2013-9-15,63.9,55.3,46.0,54.3,49.7,42.7,98,83,60,29.18,29.12,8,0,8,0.00
2013-9-16,64.9,55.0,45.5,54.1,48.1,38.8,98,80,44,29.41,29.18,12,2,12,0.00
2013-9-17,72.9,53.0,35.8,56.5,43.0,35.3,98,74,35,29.44,29.26,8,0,8,0.00
2013-9-18,80.4,60.8,44.4,59.7,49.6,42.4,98,72,34,29.26,29.09,9,1,9,0.00
2013-9-19,82.8,68.0,57.0,66.3,61.6,56.4,98,82,55,29.12,29.00,10,1,10,0.00
2013-9-20,83.1,71.1,65.8,71.4,67.1,63.9,98,88,60,29.00,28.79,12,2,12,0.00
2013-9-21,71.8,61.9,53.4,64.8,53.8,41.8,98,78,40,28.94,28.76,10,1,10,0.00
2013-9-22,62.8,52.5,42.6,42.2,39.3,35.7,94,62,43,29.15,28.94,12,1,12,0.00
2013-9-23,65.8,49.2,37.6,50.1,41.6,37.1,98,79,43,29.23,29.15,5,0,7,0.00
2013-9-24,72.3,53.6,40.8,58.4,44.7,40.3,98,77,40,29.21,29.03,8,0,8,0.00
2013-9-25,74.8,56.5,44.6,58.4,47.6,43.9,98,77,37,29.06,29.00,8,0,8,0.00
2013-9-26,79.9,57.6,40.5,61.2,46.3,39.9,98,73,31,29.21,29.06,10,0,10,0.00
2013-9-27,80.4,59.9,43.5,62.6,49.9,43.0,98,75,36,29.29,29.21,8,0,8,0.00
2013-9-28,81.9,63.6,50.0,65.6,53.2,48.9,98,74,34,29.26,29.09,9,1,10,0.00
2013-9-29,63.1,59.9,57.6,62.0,56.6,50.9,98,89,75,29.09,29.03,9,0,9,0.00
2013-9-30,73.8,61.6,52.0,60.9,54.3,46.6,98,80,41,29.09,29.00,11,0,11,0.00
2013-10-1,74.7,59.7,47.3,65.7,55.8,46.8,98,88,62,29.09,29.00,14,1,14,0.00
2013-10-2,82.2,65.2,52.0,63.2,52.4,40.4,98,70,28,29.15,29.00,8,0,8,0.00
2013-10-3,80.6,65.3,52.0,65.4,58.9,49.4,98,82,58,29.12,29.00,10,1,10,0.00
2013-10-4,82.9,70.0,63.7,67.4,64.1,62.0,98,83,57,29.09,29.00,12,0,12,0.00
2013-10-5,73.2,67.0,62.8,69.4,65.2,62.2,98,94,82,29.12,28.94,9,0,9,0.00
2013-10-6,70.2,64.3,53.8,67.2,62.7,53.1,98,95,80,28.94,28.70,13,2,13,0.00
2013-10-7,61.0,50.7,43.0,53.8,46.0,41.0,98,84,58,29.18,28.76,14,2,15,0.00
2013-10-8,71.4,52.9,38.7,57.0,42.4,37.9,98,73,36,29.32,29.18,8,0,8,0.00
2013-10-9,74.3,54.4,40.3,60.3,44.6,39.6,98,75,35,29.35,29.26,8,0,8,0.00
2013-10-10,75.6,54.9,40.6,60.8,44.5,39.1,98,74,32,29.29,29.18,8,0,8,0.00
2013-10-11,76.5,54.6,37.4,57.9,43.5,36.9,98,73,32,29.21,29.12,6,0,6,0.00
2013-10-12,80.2,60.7,46.0,66.2,51.5,44.4,98,77,33,29.15,29.09,8,1,8,0.00
2013-10-13,70.7,58.3,43.7,58.6,45.6,34.2,98,68,32,29.38,29.15,11,1,11,0.00
2013-10-14,67.5,50.5,40.1,46.8,40.2,36.3,98,72,36,29.44,29.32,9,1,9,0.00
2013-10-15,66.7,53.4,40.6,60.4,50.2,39.3,98,90,68,29.32,28.88,10,1,10,0.00
2013-10-16,63.9,55.4,50.5,60.6,49.1,39.5,98,81,47,28.97,28.85,15,2,15,0.00
2013-10-17,52.0,49.4,45.7,50.2,46.9,44.8,97,91,82,28.94,28.82,11,1,11,0.00
2013-10-18,64.9,50.0,43.0,46.0,41.3,35.5,98,76,37,28.97,28.88,12,1,12,0.00
2013-10-19,50.0,43.3,38.1,45.7,40.2,37.2,98,89,76,28.94,28.79,13,1,13,0.00
2013-10-20,60.4,47.6,36.7,42.8,39.1,35.7,98,75,42,28.97,28.85,15,1,15,0.00
2013-10-21,55.6,49.1,39.2,47.8,40.3,30.8,85,72,57,28.91,28.85,15,3,15,0.00
2013-10-22,53.6,40.7,32.2,33.9,27.6,23.1,83,61,41,28.94,28.88,13,2,13,0.00
2013-10-23,53.1,37.9,28.6,39.3,28.3,22.3,98,71,38,28.97,28.85,12,1,12,0.00
2013-10-24,52.2,37.5,30.2,33.1,28.9,22.4,97,74,38,29.21,28.97,13,1,13,0.00
2013-10-25,49.3,37.3,28.9,36.0,28.5,23.8,98,73,45,29.35,29.15,14,1,14,0.00
2013-10-26,52.0,42.0,34.2,37.3,29.0,24.1,98,62,45,29.15,28.82,18,3,18,0.00
2013-10-27,53.6,39.6,31.1,36.6,31.2,26.4,98,75,41,29.09,29.03,11,1,11,0.00
2013-10-28,54.1,39.6,30.2,37.9,31.1,26.2,97,73,50,29.41,29.06,10,1,10,0.00
2013-10-29,53.4,42.6,34.0,34.2,30.5,26.8,82,63,45,29.47,29.26,8,1,8,0.00
2013-10-30,68.0,47.4,31.3,49.8,37.5,28.8,98,73,38,29.26,28.97,8,1,8,0.00
2013-10-31,60.8,58.3,51.6,60.2,57.7,50.0,98,98,94,29.00,28.23,20,4,20,0.00
2013-11-1,59.5,48.6,44.8,59.0,42.0,35.9,98,78,61,28.70,28.20,24,4,24,0.00
2013-11-2,47.7,43.0,33.1,44.2,39.5,30.3,98,88,73,29.15,28.70,13,2,13,0.08
2013-11-3,45.9,35.4,28.4,38.2,30.2,26.7,98,83,55,29.47,29.15,9,0,9,0.00
2013-11-4,49.8,39.7,31.3,33.0,29.1,23.5,91,68,40,29.47,29.32,13,2,13,0.00
2013-11-5,54.7,48.4,41.0,46.4,40.7,31.6,88,75,60,29.38,29.21,9,2,9,0.00
2013-11-6,54.7,50.9,41.9,52.3,44.8,36.5,94,81,56,29.21,28.85,18,4,18,0.00
2013-11-7,47.7,38.9,32.0,37.8,28.3,20.9,94,68,41,29.18,29.03,17,2,17,0.00
2013-11-8,48.2,35.2,29.1,31.5,26.0,19.9,97,72,41,29.29,29.15,11,1,11,0.08
2013-11-9,58.6,46.3,34.5,36.3,31.1,25.0,74,56,42,29.21,28.85,20,5,20,0.00
2013-11-10,50.2,41.0,32.7,38.2,26.4,22.4,83,57,43,29.29,28.94,19,3,19,0.00
2013-11-11,42.3,35.2,26.4,37.2,28.5,17.6,92,77,64,29.32,29.06,12,2,12,0.00
2013-11-12,36.0,26.7,20.7,18.9,14.2,9.6,79,60,43,29.56,29.32,15,2,15,0.00
2013-11-13,43.2,29.5,17.1,22.1,15.3,11.6,87,58,32,29.56,29.18,18,4,18,0.00
2013-11-14,52.5,38.9,29.5,26.9,18.6,12.4,55,44,36,29.18,29.00,14,4,16,0.00
2013-11-15,53.1,42.2,35.2,27.5,22.9,18.5,58,46,37,29.09,29.03,13,3,13,0.00
2013-11-16,56.5,45.8,33.1,51.6,38.7,23.6,91,77,58,29.12,28.85,20,4,20,0.00
2013-11-17,61.3,58.0,55.0,59.3,55.9,42.2,98,93,67,28.85,28.29,28,7,28,0.00
2013-11-21,48.6,44.0,39.9,42.8,37.4,25.9,98,79,57,29.29,29.21,13,3,13,0.00
2013-11-22,44.4,38.1,24.8,43.9,34.6,20.3,98,88,66,29.38,29.18,11,1,11,0.00
2013-11-23,31.6,23.1,14.7,24.1,12.9,2.2,95,67,42,29.53,29.29,15,3,15,0.00
2013-11-24,28.6,17.5,10.9,11.9,5.5,1.5,78,60,43,29.59,29.41,13,2,13,0.00
2013-11-25,31.5,24.9,17.2,22.5,11.6,4.6,78,57,44,29.41,29.09,17,5,17,0.00
2013-11-26,34.3,30.5,27.5,25.3,24.1,19.5,86,77,67,29.12,28.97,11,2,11,0.00
2013-11-27,29.8,22.7,15.8,20.7,9.8,4.0,81,58,44,29.21,28.94,16,3,16,0.00
2013-11-28,28.6,21.2,13.6,18.0,11.3,4.8,80,66,52,29.41,29.21,11,1,11,0.00
2013-11-29,36.5,22.6,11.7,22.6,13.8,8.0,91,71,43,29.65,29.41,8,1,8,0.00
2013-11-30,46.2,33.4,25.2,24.6,20.7,16.4,76,60,42,29.56,29.12,12,3,12,0.00
2013-12-1,45.7,34.4,28.0,31.1,27.2,22.5,91,75,53,29.12,29.00,10,1,10,0.00
2013-12-2,39.9,32.1,24.1,30.3,22.4,15.1,90,69,43,29.03,28.91,9,0,9,0.00
2013-12-3,36.7,32.8,24.1,35.7,29.2,17.4,96,86,74,28.94,28.85,12,2,12,0.00
2013-12-4,56.7,45.4,36.7,53.8,43.4,35.7,98,93,80,28.94,28.67,13,3,13,0.00
2013-12-5,56.8,41.4,29.1,53.6,30.6,16.1,95,66,50,29.18,28.64,22,4,22,0.00
2013-12-6,29.1,25.0,18.7,17.1,11.6,6.4,62,56,51,29.41,29.15,9,1,9,0.00
2013-12-7,27.5,18.4,10.4,8.7,4.2,-1.1,67,54,43,29.62,29.41,10,1,10,0.00
2013-12-8,27.9,18.6,9.3,25.6,8.4,-2.1,91,65,50,29.59,29.00,13,2,13,0.00
2013-12-9,28.4,25.2,18.3,26.1,17.4,5.0,93,73,55,29.09,28.88,20,5,20,0.00
2013-12-10,24.4,17.2,9.1,11.4,3.5,-4.3,68,55,42,29.18,28.97,20,5,20,0.00
2013-12-11,25.9,16.5,3.4,14.5,5.3,-9.7,76,61,51,29.44,29.18,13,3,13,0.00
2013-12-12,21.7,12.5,0.7,9.7,-1.7,-12.1,63,52,41,29.44,29.18,17,4,17,0.00
2013-12-13,29.8,23.9,20.3,16.3,13.3,9.7,71,64,55,29.26,29.15,13,2,13,0.00
2013-12-14,21.4,18.8,16.9,16.9,12.9,5.9,87,78,56,29.26,28.82,15,4,15,0.00
2013-12-15,25.5,18.9,13.8,20.5,12.1,3.9,90,75,55,29.03,28.82,17,2,17,0.00
2013-12-16,28.4,13.0,2.1,11.5,0.7,-6.6,82,58,45,29.18,29.00,9,0,9,0.00
2013-12-17,32.5,21.1,11.1,20.9,15.3,6.2,90,78,57,29.00,28.88,14,2,14,0.00
2013-12-18,35.4,25.3,20.1,23.9,17.1,9.2,95,73,49,29.12,28.91,15,3,15,0.00
2013-12-19,43.0,31.4,19.8,32.4,22.9,9.9,92,71,56,29.00,28.88,6,0,8,0.00
2013-12-20,34.5,33.6,33.4,33.1,33.1,32.3,98,98,92,28.94,28.76,8,0,8,0.00
2013-12-21,33.6,33.6,33.6,33.1,33.1,33.1,98,98,98,28.76,28.76,0,0,0,0.00
2013-12-23,33.8,11.5,0.0,13.1,3.8,0.0,59,27,44,29.29,29.29,0,0,0,0.00
2013-12-24,35.8,15.9,5.5,17.3,3.4,-7.1,79,59,35,29.53,29.29,0,0,0,0.00
2013-12-25,23.4,18.5,7.5,20.1,10.7,-5.3,87,71,55,29.50,29.12,0,0,0,0.00
2013-12-26,30.4,25.0,23.0,23.7,17.3,11.1,92,74,52,29.29,29.03,15,1,15,0.00
2013-12-27,43.0,32.3,24.1,29.9,25.2,18.5,88,75,53,29.32,29.09,14,2,14,0.00
2013-12-28,49.5,38.4,28.9,30.5,28.2,23.5,84,68,48,29.15,28.94,13,2,13,0.00
2013-12-29,45.3,32.4,20.1,28.3,24.3,10.9,89,72,51,29.03,28.73,12,2,12,0.04
2013-12-30,22.6,17.9,12.2,10.9,3.7,-2.9,68,54,45,29.26,29.03,13,1,13,0.00
2013-12-31,23.0,16.2,13.3,10.4,5.7,2.0,76,63,52,29.32,29.06,14,4,14,0.00
2014-1-1,14.5,12.1,10.2,8.7,6.0,4.2,77,76,76,29.38,29.23,10,3,10,0.00
2014-1-2,16.5,10.5,-0.6,7.7,1.7,-11.8,76,68,56,29.26,29.09,25,6,25,0.00